User: anonymous   Login
Location: Kra?nica
(53.4833°N, 14.6167°E)
Time: 17:06:13
(UTC+00:00)
Language:

Cosmos 2360 Rocket - Orbit

View from above orbital plane
View from above orbital plane
View from above satellite
View from above satellite

Ground track
Ground track

The orbit data is extracted from the following two-line orbital elements,

1 25407U 98045B   24199.86927444  .00000028  00000-0  38219-4 0  9990
2 25407  71.0122   2.8415 0009073 230.4672 129.5650 14.16013209342189
Epoch (UTC): 17 July 2024 20:51:45
Eccentricity: 0.0009073
inclination: 71.0122°
perigee height: 832 km
apogee height: 845 km
right ascension of ascending node: 2.8415°
argument of perigee: 230.4672°
revolutions per day: 14.16013209
mean anomaly at epoch: 129.5650°
orbit number at epoch: 34218

The dashed part of the orbit path shows where the satellite is in the earth's shadow,  

DLR